Regional Weather Roundup
Issued by NWS

Home | Current Version | Previous Version | Text Only | Print | Product List | Glossary On
Versions: 1 2 3 4 5 6 7 8 9 10 11 12 13 14 15 16 17 18 19 20 21 22 23 24 25 26 27 28 29 30 31 32 33 34 35 36 37 38 39 40 41 42 43 44 45 46 47 48 49 50
000
ASUS45 KREV 301810
RWRNV
NEVADA REGIONAL WEATHER ROUNDUP
NATIONAL WEATHER SERVICE RENO NV
1100 AM PDT SAT AUG 30 2014

NOTE: "FAIR" INDICATES FEW OR NO CLOUDS BELOW 12,000 FEET WITH NO
SIGNIFICANT WEATHER AND/OR OBSTRUCTIONS TO VISIBILITY.

NVZ001-003-004-301900-
WESTERN NEVADA

CITY           SKY/WX    TMP DP  RH WIND       PRES   REMARKS
RENO           MOSUNNY   82  37  20 SW7       30.02F
6HR MIN TEMP:  61; 6HR MAX TEMP:  83;

CARSON CITY    FAIR      81  36  19 SW8G17    30.06S
MINDEN         FAIR      82  32  16 W9G22     30.06S
SLIDE MTN        N/A     55  36  47 W12         N/A
PYRAMID LAKE     N/A     73 N/A N/A N7          N/A
FALLON         MOSUNNY   82  33  17 VRB5      30.00S
6HR MIN TEMP:  58; 6HR MAX TEMP:  82;

LOVELOCK       MOSUNNY   82  39  21 S8        29.99F
6HR MIN TEMP:  49; 6HR MAX TEMP:  82;

HAWTHORNE      SUNNY     88  28  11 E5        29.98F
$$

NVZ002-CAZ072-073-301900-
NORTHERN AND CENTRAL SIERRA

CITY           SKY/WX    TMP DP  RH WIND       PRES   REMARKS
S. LAKE TAHOE  SUNNY     75  31  19 VRB7G18   30.16S
6HR MIN TEMP:  59; 6HR MAX TEMP:  75;

TRUCKEE        SUNNY     73  36  25 W12       30.14F
SQUAW VLY 8000 NOT AVBL
BLUE CANYON    SUNNY     70  33  25 S10       30.14F
MAMMOTH LAKES  FAIR      77  30  18 W17G25    30.24S
BRIDGEPORT     FAIR      76  22  13 SW14G20   30.16F
$$

NVZ030-031-036-301900-
NORTHERN NEVADA

CITY           SKY/WX    TMP DP  RH WIND       PRES   REMARKS
ELKO           SUNNY     78  35  21 SW10G22   30.02F
6HR MIN TEMP:  51; 6HR MAX TEMP:  78;

WINNEMUCCA     MOSUNNY   77  37  23 SW14G21   30.01S
6HR MIN TEMP:  53; 6HR MAX TEMP:  78;

WENDOVER       PTSUNNY   81  36  19 W3        29.95F
$$

NVZ035-037-301900-
CENTRAL NEVADA

CITY           SKY/WX    TMP DP  RH WIND       PRES   REMARKS
ELY            PTSUNNY   76  31  19 VRB6      30.10F
6HR MIN TEMP:  55; 6HR MAX TEMP:  76;

EUREKA           N/A     79  22  12 SW17G23   30.08F
6HR MIN TEMP:  61; 6HR MAX TEMP:  79;

$$

NVZ013-014-301900-
SOUTH CENTRAL NEVADA

CITY           SKY/WX    TMP DP  RH WIND       PRES   REMARKS
TONOPAH        MOSUNNY   80  28  15 W5        30.10F
6HR MIN TEMP:  61; 6HR MAX TEMP:  80;

$$

NVZ017-020-022-301900-
SOUTHERN NEVADA

CITY           SKY/WX    TMP DP  RH WIND       PRES   REMARKS
LAS VEGAS      PTSUNNY   95  34  11 VRB3      29.82S
6HR MIN TEMP:  80; 6HR MAX TEMP:  96;

N. LAS VEGAS   MOSUNNY   93  33  12 SE5       29.84F
6HR MIN TEMP:  75; 6HR MAX TEMP:  93;

NELLIS AFB     PTSUNNY   95  35  12 NE5       29.83S
6HR MIN TEMP:  74; 6HR MAX TEMP:  96;

HENDERSON      MOSUNNY   98  38  12 NE8       29.88S
6HR MIN TEMP:  80; 6HR MAX TEMP:  98;

MERCURY        PTSUNNY   89  28  11 SW5       29.93S
6HR MIN TEMP:  65; 6HR MAX TEMP:  90;

$$


USA.gov is the U.S. government's official web portal to all federal, state and local government web resources and services.